Time,TemperatureF,DewpointF,PressureIn,WindDirection,WindDirectionDegrees,WindSpeedMPH,WindSpeedGustMPH,Humidity,HourlyPrecipIn,Conditions,Clouds,dailyrainin,SoftwareType,DateUTC
2013-04-23 00:00:00,36.3,17.4,30.19,NNW,338,1.5,2.8,46,0.00,,,0.00,WUHU216TE923,2013-04-23 07:00:00,
2013-04-23 00:05:00,36.1,17.2,30.19,WNW,293,1.3,1.5,46,0.00,,,0.00,WUHU216TE923,2013-04-23 07:05:00,
2013-04-23 00:10:00,36.1,17.2,30.19,West,270,1.1,1.4,46,0.00,,,0.00,WUHU216TE923,2013-04-23 07:10:00,
2013-04-23 00:15:00,36.1,17.2,30.19,West,270,1.1,1.3,46,0.00,,,0.00,WUHU216TE923,2013-04-23 07:15:00,
2013-04-23 00:20:00,36.1,17.2,30.19,NW,315,1.2,2.4,46,0.00,,,0.00,WUHU216TE923,2013-04-23 07:20:00,
2013-04-23 00:25:00,36.1,17.2,30.19,West,270,1.4,2.4,46,0.00,,,0.00,WUHU216TE923,2013-04-23 07:25:00,
2013-04-23 00:30:00,36.1,17.2,30.19,West,270,1.4,1.9,46,0.00,,,0.00,WUHU216TE923,2013-04-23 07:30:00,
2013-04-23 00:35:00,36.0,17.1,30.19,WNW,293,1.5,1.9,46,0.00,,,0.00,WUHU216TE923,2013-04-23 07:35:00,
2013-04-23 00:40:00,36.0,17.1,30.19,West,270,1.7,2.9,46,0.00,,,0.00,WUHU216TE923,2013-04-23 07:40:00,
2013-04-23 00:45:00,35.8,16.9,30.19,WSW,248,1.9,2.9,46,0.00,,,0.00,WUHU216TE923,2013-04-23 07:45:00,
2013-04-23 00:50:00,35.8,16.9,30.19,West,270,1.9,3.6,46,0.00,,,0.00,WUHU216TE923,2013-04-23 07:50:00,
2013-04-23 00:55:00,35.8,16.9,30.19,West,270,1.7,3.6,46,0.00,,,0.00,WUHU216TE923,2013-04-23 07:55:00,
2013-04-23 01:00:00,35.4,16.5,30.19,WNW,293,1.9,3.0,46,0.00,,,0.00,WUHU216TE923,2013-04-23 08:00:00,
2013-04-23 01:05:00,35.4,16.5,30.19,WNW,293,1.9,2.5,46,0.00,,,0.00,WUHU216TE923,2013-04-23 08:05:00,
2013-04-23 01:10:00,35.2,16.9,30.19,WNW,293,1.9,2.4,47,0.00,,,0.00,WUHU216TE923,2013-04-23 08:10:00,
2013-04-23 01:15:00,35.1,16.8,30.19,WNW,293,1.8,2.4,47,0.00,,,0.00,WUHU216TE923,2013-04-23 08:15:00,
2013-04-23 01:20:00,34.9,16.6,30.19,WNW,293,1.6,1.8,47,0.00,,,0.00,WUHU216TE923,2013-04-23 08:20:00,
2013-04-23 01:25:00,34.7,16.4,30.19,West,270,1.5,1.7,47,0.00,,,0.00,WUHU216TE923,2013-04-23 08:25:00,
2013-04-23 01:30:00,34.7,16.4,30.19,NNE,23,1.5,2.0,47,0.00,,,0.00,WUHU216TE923,2013-04-23 08:30:00,
2013-04-23 01:35:00,34.5,16.2,30.19,WNW,293,1.5,2.0,47,0.00,,,0.00,WUHU216TE923,2013-04-23 08:35:00,
2013-04-23 01:40:00,34.5,16.2,30.19,WNW,293,1.4,2.0,47,0.00,,,0.00,WUHU216TE923,2013-04-23 08:40:00,
2013-04-23 01:45:00,34.5,16.2,30.19,WNW,293,1.4,1.7,47,0.00,,,0.00,WUHU216TE923,2013-04-23 08:45:00,
2013-04-23 01:50:00,34.3,16.0,30.19,SSW,203,1.3,1.4,47,0.00,,,0.00,WUHU216TE923,2013-04-23 08:50:00,
2013-04-23 01:55:00,34.5,16.2,30.19,West,270,0.9,1.4,47,0.00,,,0.00,WUHU216TE923,2013-04-23 08:55:00,
2013-04-23 02:00:00,34.5,16.2,30.19,West,270,0.8,2.1,47,0.00,,,0.00,WUHU216TE923,2013-04-23 09:00:00,
2013-04-23 02:05:00,34.2,16.5,30.19,West,270,0.9,2.1,48,0.00,,,0.00,WUHU216TE923,2013-04-23 09:05:00,
2013-04-23 02:10:00,34.2,16.5,30.19,WSW,248,0.9,1.7,48,0.00,,,0.00,WUHU216TE923,2013-04-23 09:10:00,
2013-04-23 02:15:00,33.8,16.1,30.19,WSW,248,0.8,1.7,48,0.00,,,0.00,WUHU216TE923,2013-04-23 09:15:00,
2013-04-23 02:20:00,33.8,16.1,30.19,WSW,248,1.0,1.3,48,0.00,,,0.00,WUHU216TE923,2013-04-23 09:20:00,
2013-04-23 02:25:00,33.6,16.4,30.18,West,270,0.9,1.8,49,0.00,,,0.00,WUHU216TE923,2013-04-23 09:25:00,
2013-04-23 02:30:00,33.6,16.4,30.18,WNW,293,0.9,1.8,49,0.00,,,0.00,WUHU216TE923,2013-04-23 09:30:00,
2013-04-23 02:35:00,33.4,16.2,30.18,West,270,1.3,1.7,49,0.00,,,0.00,WUHU216TE923,2013-04-23 09:35:00,
2013-04-23 02:40:00,33.4,16.2,30.18,West,270,1.3,1.7,49,0.00,,,0.00,WUHU216TE923,2013-04-23 09:40:00,
2013-04-23 02:45:00,33.3,16.1,30.17,West,270,1.2,2.2,49,0.00,,,0.00,WUHU216TE923,2013-04-23 09:45:00,
2013-04-23 02:50:00,33.3,16.1,30.17,SW,225,1.3,2.2,49,0.00,,,0.00,WUHU216TE923,2013-04-23 09:50:00,
2013-04-23 02:55:00,33.3,16.1,30.17,WSW,248,1.4,2.4,49,0.00,,,0.00,WUHU216TE923,2013-04-23 09:55:00,
2013-04-23 03:00:00,33.1,15.9,30.17,WSW,248,1.4,2.4,49,0.00,,,0.00,WUHU216TE923,2013-04-23 10:00:00,
2013-04-23 03:05:00,32.7,15.6,30.16,West,270,1.4,1.4,49,0.00,,,0.00,WUHU216TE923,2013-04-23 10:05:00,
2013-04-23 03:10:00,32.9,15.7,30.16,WNW,293,1.4,1.6,49,0.00,,,0.00,WUHU216TE923,2013-04-23 10:10:00,
2013-04-23 03:15:00,32.9,15.7,30.16,WNW,293,1.4,1.6,49,0.00,,,0.00,WUHU216TE923,2013-04-23 10:15:00,
2013-04-23 03:20:00,32.7,16.0,30.16,West,270,1.5,1.8,50,0.00,,,0.00,WUHU216TE923,2013-04-23 10:20:00,
2013-04-23 03:25:00,32.5,15.9,30.16,SW,225,1.5,1.8,50,0.00,,,0.00,WUHU216TE923,2013-04-23 10:25:00,
2013-04-23 03:30:00,32.5,15.9,30.16,SW,225,1.6,1.8,50,0.00,,,0.00,WUHU216TE923,2013-04-23 10:30:00,
2013-04-23 03:35:00,32.4,15.8,30.16,WSW,248,1.5,1.8,50,0.00,,,0.00,WUHU216TE923,2013-04-23 10:35:00,
2013-04-23 03:40:00,32.4,15.8,30.16,WSW,248,1.5,1.6,50,0.00,,,0.00,WUHU216TE923,2013-04-23 10:40:00,
2013-04-23 03:45:00,32.4,15.8,30.15,SW,225,1.6,2.0,50,0.00,,,0.00,WUHU216TE923,2013-04-23 10:45:00,
2013-04-23 03:50:00,32.4,15.8,30.15,SW,225,1.6,2.0,50,0.00,,,0.00,WUHU216TE923,2013-04-23 10:50:00,
2013-04-23 03:56:00,32.2,15.6,30.15,WSW,248,1.7,2.1,50,0.00,,,0.00,WUHU216TE923,2013-04-23 10:56:00,
2013-04-23 04:01:00,32.2,15.6,30.15,SW,225,1.8,2.1,50,0.00,,,0.00,WUHU216TE923,2013-04-23 11:01:00,
2013-04-23 04:06:00,32.2,16.0,30.15,SW,225,1.9,2.1,51,0.00,,,0.00,WUHU216TE923,2013-04-23 11:06:00,
2013-04-23 04:11:00,32.0,15.9,30.15,WSW,248,1.8,1.9,51,0.00,,,0.00,WUHU216TE923,2013-04-23 11:11:00,
2013-04-23 04:16:00,31.8,15.7,30.15,WSW,248,1.6,1.8,51,0.00,,,0.00,WUHU216TE923,2013-04-23 11:16:00,
2013-04-23 04:21:00,31.8,15.7,30.15,WSW,248,1.5,1.8,51,0.00,,,0.00,WUHU216TE923,2013-04-23 11:21:00,
2013-04-23 04:26:00,31.8,15.7,30.15,WSW,248,1.3,1.5,51,0.00,,,0.00,WUHU216TE923,2013-04-23 11:26:00,
2013-04-23 04:31:00,31.8,15.7,30.15,WSW,248,1.1,1.4,51,0.00,,,0.00,WUHU216TE923,2013-04-23 11:31:00,
2013-04-23 04:36:00,31.6,15.9,30.15,WSW,248,0.8,1.2,52,0.00,,,0.00,WUHU216TE923,2013-04-23 11:36:00,
2013-04-23 04:41:00,31.6,16.4,30.15,WSW,248,0.7,1.2,53,0.00,,,0.00,WUHU216TE923,2013-04-23 11:41:00,
2013-04-23 04:46:00,31.6,17.3,30.16,WSW,248,0.7,1.1,55,0.00,,,0.00,WUHU216TE923,2013-04-23 11:46:00,
2013-04-23 04:51:00,31.6,17.3,30.16,WSW,248,0.8,1.1,55,0.00,,,0.00,WUHU216TE923,2013-04-23 11:51:00,
2013-04-23 04:56:00,31.5,17.2,30.16,SW,225,0.9,1.3,55,0.00,,,0.00,WUHU216TE923,2013-04-23 11:56:00,
2013-04-23 05:01:00,31.5,17.2,30.16,WSW,248,1.0,1.4,55,0.00,,,0.00,WUHU216TE923,2013-04-23 12:01:00,
2013-04-23 05:06:00,31.5,17.2,30.15,WSW,248,1.0,1.4,55,0.00,,,0.00,WUHU216TE923,2013-04-23 12:06:00,
2013-04-23 05:11:00,31.3,17.0,30.15,WSW,248,0.9,1.2,55,0.00,,,0.00,WUHU216TE923,2013-04-23 12:11:00,
2013-04-23 05:16:00,31.1,16.8,30.15,SW,225,0.7,1.3,55,0.00,,,0.00,WUHU216TE923,2013-04-23 12:16:00,
2013-04-23 05:21:00,31.1,17.2,30.15,WSW,248,0.9,1.6,56,0.00,,,0.00,WUHU216TE923,2013-04-23 12:21:00,
2013-04-23 05:26:00,31.1,17.2,30.14,WSW,248,1.3,1.6,56,0.00,,,0.00,WUHU216TE923,2013-04-23 12:26:00,
2013-04-23 05:31:00,31.1,17.2,30.14,WSW,248,1.2,1.5,56,0.00,,,0.00,WUHU216TE923,2013-04-23 12:31:00,
2013-04-23 05:36:00,31.1,17.2,30.14,SW,225,1.0,1.2,56,0.00,,,0.00,WUHU216TE923,2013-04-23 12:36:00,
2013-04-23 05:41:00,30.9,17.0,30.14,WSW,248,0.7,1.0,56,0.00,,,0.00,WUHU216TE923,2013-04-23 12:41:00,
2013-04-23 05:46:00,30.7,16.9,30.15,SW,225,0.4,1.1,56,0.00,,,0.00,WUHU216TE923,2013-04-23 12:46:00,
2013-04-23 05:51:00,30.7,16.9,30.15,WSW,248,0.5,1.2,56,0.00,,,0.00,WUHU216TE923,2013-04-23 12:51:00,
2013-04-23 05:56:00,30.7,16.9,30.15,West,270,1.1,1.4,56,0.00,,,0.00,WUHU216TE923,2013-04-23 12:56:00,
2013-04-23 06:01:00,30.7,16.9,30.15,WSW,248,1.3,1.7,56,0.00,,,0.00,WUHU216TE923,2013-04-23 13:01:00,
2013-04-23 06:06:00,30.7,16.9,30.15,WSW,248,1.3,1.7,56,0.00,,,0.00,WUHU216TE923,2013-04-23 13:06:00,
2013-04-23 06:11:00,30.7,16.9,30.15,WSW,248,1.3,1.6,56,0.00,,,0.00,WUHU216TE923,2013-04-23 13:11:00,
2013-04-23 06:16:00,30.7,16.9,30.15,WSW,248,1.3,1.3,56,0.00,,,0.00,WUHU216TE923,2013-04-23 13:16:00,
2013-04-23 06:21:00,30.6,17.2,30.15,WSW,248,1.3,1.3,57,0.00,,,0.00,WUHU216TE923,2013-04-23 13:21:00,
2013-04-23 06:26:00,30.6,17.2,30.14,WSW,248,1.3,1.6,57,0.00,,,0.00,WUHU216TE923,2013-04-23 13:26:00,
2013-04-23 06:31:00,30.6,17.2,30.14,SW,225,1.4,1.9,57,0.00,,,0.00,WUHU216TE923,2013-04-23 13:31:00,
2013-04-23 06:36:00,30.7,17.3,30.14,WSW,248,1.5,1.9,57,0.00,,,0.00,WUHU216TE923,2013-04-23 13:36:00,
2013-04-23 06:41:00,30.7,17.3,30.14,WSW,248,1.4,1.6,57,0.00,,,0.00,WUHU216TE923,2013-04-23 13:41:00,
2013-04-23 06:46:00,30.9,17.0,30.14,SW,225,1.1,1.6,56,0.00,,,0.00,WUHU216TE923,2013-04-23 13:46:00,
2013-04-23 06:51:00,31.1,17.2,30.14,SW,225,0.6,1.2,56,0.00,,,0.00,WUHU216TE923,2013-04-23 13:51:00,
2013-04-23 06:56:00,31.5,17.6,30.14,SW,225,0.5,1.8,56,0.00,,,0.00,WUHU216TE923,2013-04-23 13:56:00,
2013-04-23 07:01:00,31.8,17.9,30.14,SSW,203,1.0,5.0,56,0.00,,,0.00,WUHU216TE923,2013-04-23 14:01:00,
2013-04-23 07:06:00,32.4,18.0,30.14,SSW,203,1.7,5.0,55,0.00,,,0.00,WUHU216TE923,2013-04-23 14:06:00,
2013-04-23 07:11:00,32.7,18.3,30.14,South,180,1.4,2.0,55,0.00,,,0.00,WUHU216TE923,2013-04-23 14:11:00,
2013-04-23 07:16:00,33.1,18.2,30.14,South,180,1.7,3.2,54,0.00,,,0.00,WUHU216TE923,2013-04-23 14:16:00,
2013-04-23 07:21:00,33.3,17.5,30.14,SW,225,2.4,5.1,52,0.00,,,0.00,WUHU216TE923,2013-04-23 14:21:00,
2013-04-23 07:26:00,33.6,17.8,30.13,SSW,203,3.2,5.1,52,0.00,,,0.00,WUHU216TE923,2013-04-23 14:26:00,
2013-04-23 07:31:00,33.8,17.5,30.13,SSW,203,3.2,3.7,51,0.00,,,0.00,WUHU216TE923,2013-04-23 14:31:00,
2013-04-23 07:36:00,34.2,17.4,30.13,SW,225,3.2,3.4,50,0.00,,,0.00,WUHU216TE923,2013-04-23 14:36:00,
2013-04-23 07:41:00,34.3,17.0,30.13,SW,225,3.2,3.3,49,0.00,,,0.00,WUHU216TE923,2013-04-23 14:41:00,
2013-04-23 07:46:00,34.5,17.2,30.12,South,180,3.0,4.1,49,0.00,,,0.00,WUHU216TE923,2013-04-23 14:46:00,
2013-04-23 07:51:00,34.7,17.4,30.12,WSW,248,2.7,4.1,49,0.00,,,0.00,WUHU216TE923,2013-04-23 14:51:00,
2013-04-23 07:56:00,35.2,17.9,30.12,South,180,2.6,2.8,49,0.00,,,0.00,WUHU216TE923,2013-04-23 14:56:00,
2013-04-23 08:01:00,35.4,18.1,30.12,SSW,203,2.5,3.1,49,0.00,,,0.00,WUHU216TE923,2013-04-23 15:01:00,
2013-04-23 08:06:00,36.0,18.6,30.12,South,180,2.2,4.3,49,0.00,,,0.00,WUHU216TE923,2013-04-23 15:06:00,
2013-04-23 08:11:00,36.1,18.2,30.12,SW,225,2.4,4.3,48,0.00,,,0.00,WUHU216TE923,2013-04-23 15:11:00,
2013-04-23 08:16:00,36.5,18.6,30.12,South,180,2.7,4.2,48,0.00,,,0.00,WUHU216TE923,2013-04-23 15:16:00,
2013-04-23 08:21:00,36.7,18.8,30.12,WSW,248,3.3,5.3,48,0.00,,,0.00,WUHU216TE923,2013-04-23 15:21:00,
2013-04-23 08:26:00,36.9,18.4,30.11,SW,225,4.3,6.6,47,0.00,,,0.00,WUHU216TE923,2013-04-23 15:26:00,
2013-04-23 08:31:00,37.0,18.5,30.11,WSW,248,4.4,6.6,47,0.00,,,0.00,WUHU216TE923,2013-04-23 15:31:00,
2013-04-23 08:36:00,37.0,18.5,30.11,WSW,248,4.2,4.4,47,0.00,,,0.00,WUHU216TE923,2013-04-23 15:36:00,
2013-04-23 08:41:00,37.2,18.7,30.11,South,180,4.0,5.5,47,0.00,,,0.00,WUHU216TE923,2013-04-23 15:41:00,
2013-04-23 08:46:00,37.4,18.4,30.11,South,180,4.4,5.6,46,0.00,,,0.00,WUHU216TE923,2013-04-23 15:46:00,
2013-04-23 08:51:00,37.8,18.7,30.11,WSW,248,4.9,5.9,46,0.00,,,0.00,WUHU216TE923,2013-04-23 15:51:00,
2013-04-23 08:56:00,37.9,18.8,30.11,SW,225,5.3,7.5,46,0.00,,,0.00,WUHU216TE923,2013-04-23 15:56:00,
2013-04-23 09:01:00,38.1,19.0,30.11,SW,225,5.3,7.5,46,0.00,,,0.00,WUHU216TE923,2013-04-23 16:01:00,
2013-04-23 09:06:00,38.1,19.0,30.11,SW,225,5.3,6.2,46,0.00,,,0.00,WUHU216TE923,2013-04-23 16:06:00,
2013-04-23 09:11:00,38.8,19.1,30.11,South,180,4.7,6.9,45,0.00,,,0.00,WUHU216TE923,2013-04-23 16:11:00,
2013-04-23 09:16:00,39.2,19.5,30.11,SSE,158,4.2,6.9,45,0.00,,,0.00,WUHU216TE923,2013-04-23 16:16:00,
2013-04-23 09:21:00,39.6,19.9,30.11,South,180,3.5,4.9,45,0.00,,,0.00,WUHU216TE923,2013-04-23 16:21:00,
2013-04-23 09:26:00,40.3,20.0,30.10,South,180,2.9,4.3,44,0.00,,,0.00,WUHU216TE923,2013-04-23 16:26:00,
2013-04-23 09:31:00,40.5,20.1,30.10,South,180,2.8,6.1,44,0.00,,,0.00,WUHU216TE923,2013-04-23 16:31:00,
2013-04-23 09:36:00,41.2,20.2,30.10,ESE,113,2.8,6.1,43,0.00,,,0.00,WUHU216TE923,2013-04-23 16:36:00,
2013-04-23 09:41:00,41.4,20.4,30.10,ESE,113,2.4,2.8,43,0.00,,,0.00,WUHU216TE923,2013-04-23 16:41:00,
2013-04-23 09:46:00,42.1,21.6,30.08,SSE,158,1.9,2.4,44,0.00,,,0.00,WUHU216TE923,2013-04-23 16:46:00,
2013-04-23 09:51:00,42.3,21.2,30.08,SE,135,1.6,1.9,43,0.00,,,0.00,WUHU216TE923,2013-04-23 16:51:00,
2013-04-23 09:56:00,43.0,20.1,30.08,South,180,1.8,4.6,40,0.00,,,0.00,WUHU216TE923,2013-04-23 16:56:00,
2013-04-23 10:01:00,43.3,20.4,30.08,South,180,2.5,4.6,40,0.00,,,0.00,WUHU216TE923,2013-04-23 17:01:00,
2013-04-23 10:06:00,43.7,18.9,30.08,West,270,3.3,3.9,37,0.00,,,0.00,WUHU216TE923,2013-04-23 17:06:00,
2013-04-23 10:11:00,44.1,19.2,30.08,SSE,158,3.1,3.3,37,0.00,,,0.00,WUHU216TE923,2013-04-23 17:11:00,
2013-04-23 10:16:00,44.8,19.2,30.08,South,180,2.0,5.4,36,0.00,,,0.00,WUHU216TE923,2013-04-23 17:16:00,
2013-04-23 10:21:00,45.1,19.5,30.08,South,180,1.7,5.4,36,0.00,,,0.00,WUHU216TE923,2013-04-23 17:21:00,
2013-04-23 10:26:00,45.5,19.8,30.08,SW,225,1.8,3.2,36,0.00,,,0.00,WUHU216TE923,2013-04-23 17:26:00,
2013-04-23 10:31:00,46.0,19.6,30.08,South,180,1.9,6.2,35,0.00,,,0.00,WUHU216TE923,2013-04-23 17:31:00,
2013-04-23 10:36:00,46.4,18.6,30.08,SSW,203,2.2,6.2,33,0.00,,,0.00,WUHU216TE923,2013-04-23 17:36:00,
2013-04-23 10:41:00,46.8,19.0,30.08,SE,135,1.9,2.2,33,0.00,,,0.00,WUHU216TE923,2013-04-23 17:41:00,
2013-04-23 10:46:00,47.1,18.5,30.07,SE,135,1.9,1.9,32,0.00,,,0.00,WUHU216TE923,2013-04-23 17:46:00,
2013-04-23 10:51:00,47.5,18.9,30.07,SW,225,1.6,3.8,32,0.00,,,0.00,WUHU216TE923,2013-04-23 17:51:00,
2013-04-23 10:56:00,48.0,20.0,30.07,SE,135,1.5,3.8,33,0.00,,,0.00,WUHU216TE923,2013-04-23 17:56:00,
2013-04-23 11:01:00,48.4,19.6,30.07,SSE,158,1.9,1.9,32,0.00,,,0.00,WUHU216TE923,2013-04-23 18:01:00,
2013-04-23 11:06:00,48.9,20.1,30.07,East,90,1.9,4.6,32,0.00,,,0.00,WUHU216TE923,2013-04-23 18:06:00,
2013-04-23 11:11:00,49.3,19.7,30.07,NNE,23,1.9,4.6,31,0.00,,,0.00,WUHU216TE923,2013-04-23 18:11:00,
2013-04-23 11:16:00,49.6,20.0,30.07,North,0,1.8,4.6,31,0.00,,,0.00,WUHU216TE923,2013-04-23 18:16:00,
2013-04-23 11:21:00,50.0,20.3,30.07,SE,135,1.7,4.6,31,0.00,,,0.00,WUHU216TE923,2013-04-23 18:21:00,
2013-04-23 11:26:00,50.4,19.9,30.07,SE,135,1.4,1.7,30,0.00,,,0.00,WUHU216TE923,2013-04-23 18:26:00,
2013-04-23 11:31:00,50.5,20.0,30.07,SE,135,0.9,1.4,30,0.00,,,0.00,WUHU216TE923,2013-04-23 18:31:00,
2013-04-23 11:36:00,50.9,20.3,30.07,NE,45,1.1,1.1,30,0.00,,,0.00,WUHU216TE923,2013-04-23 18:36:00,
2013-04-23 11:41:00,51.1,20.5,30.07,North,0,1.1,2.1,30,0.00,,,0.00,WUHU216TE923,2013-04-23 18:41:00,
2013-04-23 11:46:00,51.3,16.5,30.06,SE,135,1.2,2.1,25,0.00,,,0.00,WUHU216TE923,2013-04-23 18:46:00,
2013-04-23 11:51:00,51.6,16.7,30.06,SE,135,1.1,2.2,25,0.00,,,0.00,WUHU216TE923,2013-04-23 18:51:00,
2013-04-23 11:56:00,51.6,15.8,30.06,ENE,68,1.4,4.0,24,0.00,,,0.00,WUHU216TE923,2013-04-23 18:56:00,
2013-04-23 12:01:00,52.0,17.1,30.06,North,0,1.7,4.0,25,0.00,,,0.00,WUHU216TE923,2013-04-23 19:01:00,
2013-04-23 12:06:00,52.2,17.3,30.05,South,180,1.2,1.7,25,0.00,,,0.00,WUHU216TE923,2013-04-23 19:06:00,
2013-04-23 12:11:00,52.3,17.3,30.05,ENE,68,0.9,1.6,25,0.00,,,0.00,WUHU216TE923,2013-04-23 19:11:00,
2013-04-23 12:16:00,52.3,17.3,30.05,ENE,68,0.9,0.9,25,0.00,,,0.00,WUHU216TE923,2013-04-23 19:16:00,
2013-04-23 12:21:00,52.9,16.9,30.05,NNE,23,1.5,1.8,24,0.00,,,0.00,WUHU216TE923,2013-04-23 19:21:00,
2013-04-23 12:26:00,53.1,16.1,30.04,ENE,68,1.2,1.8,23,0.00,,,0.00,WUHU216TE923,2013-04-23 19:26:00,
2013-04-23 12:31:00,53.2,15.2,30.04,NE,45,1.6,2.4,22,0.00,,,0.00,WUHU216TE923,2013-04-23 19:31:00,
2013-04-23 12:36:00,53.4,15.4,30.04,NE,45,1.3,2.4,22,0.00,,,0.00,WUHU216TE923,2013-04-23 19:36:00,
2013-04-23 12:41:00,53.4,15.4,30.04,SSE,158,1.3,1.7,22,0.00,,,0.00,WUHU216TE923,2013-04-23 19:41:00,
2013-04-23 12:46:00,54.0,15.9,30.04,SSE,158,1.5,2.2,22,0.00,,,0.00,WUHU216TE923,2013-04-23 19:46:00,
2013-04-23 12:51:00,54.1,16.0,30.04,East,90,1.7,2.2,22,0.00,,,0.00,WUHU216TE923,2013-04-23 19:51:00,
2013-04-23 12:56:00,54.0,21.4,30.04,South,180,2.0,2.5,28,0.00,,,0.00,WUHU216TE923,2013-04-23 19:56:00,
2013-04-23 13:01:00,54.3,17.1,30.04,NE,45,2.0,2.5,23,0.00,,,0.00,WUHU216TE923,2013-04-23 20:01:00,
2013-04-23 13:06:00,54.7,16.5,30.03,NE,45,1.9,2.3,22,0.00,,,0.00,WUHU216TE923,2013-04-23 20:06:00,
2013-04-23 13:11:00,54.7,15.4,30.03,NNE,23,2.0,3.3,21,0.00,,,0.00,WUHU216TE923,2013-04-23 20:11:00,
2013-04-23 13:16:00,55.0,14.6,30.03,NE,45,2.3,6.7,20,0.00,,,0.00,WUHU216TE923,2013-04-23 20:16:00,
2013-04-23 13:21:00,55.0,14.6,30.03,NNW,338,2.5,6.7,20,0.00,,,0.00,WUHU216TE923,2013-04-23 20:21:00,
2013-04-23 13:26:00,55.0,15.7,30.02,NE,45,1.9,2.5,21,0.00,,,0.00,WUHU216TE923,2013-04-23 20:26:00,
2013-04-23 13:31:00,55.0,14.6,30.02,NE,45,1.9,4.3,20,0.00,,,0.00,WUHU216TE923,2013-04-23 20:31:00,
2013-04-23 13:36:00,55.2,15.8,30.02,NW,315,2.8,4.3,21,0.00,,,0.00,WUHU216TE923,2013-04-23 20:36:00,
2013-04-23 13:41:00,55.4,16.0,30.02,NE,45,2.8,5.2,21,0.00,,,0.00,WUHU216TE923,2013-04-23 20:41:00,
2013-04-23 13:46:00,55.4,16.0,30.01,West,270,2.6,5.2,21,0.00,,,0.00,WUHU216TE923,2013-04-23 20:46:00,
2013-04-23 13:51:00,55.6,11.4,30.01,NNE,23,2.8,3.6,17,0.00,,,0.00,WUHU216TE923,2013-04-23 20:51:00,
2013-04-23 13:56:00,55.8,15.2,30.01,NNW,338,2.7,4.3,20,0.00,,,0.00,WUHU216TE923,2013-04-23 20:56:00,
2013-04-23 14:01:00,55.8,15.2,30.01,SE,135,2.4,4.3,20,0.00,,,0.00,WUHU216TE923,2013-04-23 21:01:00,
2013-04-23 14:06:00,55.9,11.6,30.00,North,0,2.6,4.7,17,0.00,,,0.00,WUHU216TE923,2013-04-23 21:06:00,
2013-04-23 14:11:00,55.9,14.2,30.00,ENE,68,2.5,4.7,19,0.00,,,0.00,WUHU216TE923,2013-04-23 21:11:00,
2013-04-23 14:16:00,56.7,14.8,30.00,ESE,113,2.7,4.8,19,0.00,,,0.00,WUHU216TE923,2013-04-23 21:16:00,
2013-04-23 14:21:00,56.8,9.5,30.00,ENE,68,3.5,4.8,15,0.00,,,0.00,WUHU216TE923,2013-04-23 21:21:00,
2013-04-23 14:26:00,57.0,9.7,30.00,NNW,338,3.9,7.6,15,0.00,,,0.00,WUHU216TE923,2013-04-23 21:26:00,
2013-04-23 14:31:00,57.2,8.3,30.00,East,90,3.7,7.6,14,0.00,,,0.00,WUHU216TE923,2013-04-23 21:31:00,
2013-04-23 14:36:00,57.4,6.8,30.00,NE,45,3.8,3.8,13,0.00,,,0.00,WUHU216TE923,2013-04-23 21:36:00,
2013-04-23 14:41:00,57.2,6.6,30.00,NE,45,3.8,6.2,13,0.00,,,0.00,WUHU216TE923,2013-04-23 21:41:00,
2013-04-23 14:46:00,57.4,6.8,30.00,ENE,68,3.4,6.6,13,0.00,,,0.00,WUHU216TE923,2013-04-23 21:46:00,
2013-04-23 14:51:00,57.6,7.0,30.00,ENE,68,2.9,6.6,13,0.00,,,0.00,WUHU216TE923,2013-04-23 21:51:00,
2013-04-23 14:56:00,57.9,7.2,30.00,NNW,338,3.3,4.4,13,0.00,,,0.00,WUHU216TE923,2013-04-23 21:56:00,
2013-04-23 15:01:00,57.9,3.4,30.00,SW,225,3.5,10.2,11,0.00,,,0.00,WUHU216TE923,2013-04-23 22:01:00,
2013-04-23 15:06:00,58.1,7.3,30.00,NNE,23,3.3,10.2,13,0.00,,,0.00,WUHU216TE923,2013-04-23 22:06:00,
2013-04-23 15:11:00,58.3,3.8,30.00,NNE,23,3.2,6.3,11,0.00,,,0.00,WUHU216TE923,2013-04-23 22:11:00,
2013-04-23 15:16:00,58.1,3.6,30.00,SSE,158,3.1,5.6,11,0.00,,,0.00,WUHU216TE923,2013-04-23 22:16:00,
2013-04-23 15:21:00,58.1,3.6,30.00,NW,315,3.2,4.8,11,0.00,,,0.00,WUHU216TE923,2013-04-23 22:21:00,
2013-04-23 15:26:00,58.3,3.8,30.00,ENE,68,3.7,6.8,11,0.00,,,0.00,WUHU216TE923,2013-04-23 22:26:00,
2013-04-23 15:31:00,58.6,4.0,30.00,WNW,293,4.0,6.8,11,0.00,,,0.00,WUHU216TE923,2013-04-23 22:31:00,
2013-04-23 15:36:00,59.0,2.2,30.00,East,90,3.9,6.8,10,0.00,,,0.00,WUHU216TE923,2013-04-23 22:36:00,
2013-04-23 15:41:00,59.2,2.3,30.00,ESE,113,3.4,6.8,10,0.00,,,0.00,WUHU216TE923,2013-04-23 22:41:00,
2013-04-23 15:46:00,59.4,2.5,29.98,ESE,113,2.7,3.5,10,0.00,,,0.00,WUHU216TE923,2013-04-23 22:46:00,
2013-04-23 15:51:00,59.4,2.5,29.98,SE,135,2.2,2.7,10,0.00,,,0.00,WUHU216TE923,2013-04-23 22:51:00,
2013-04-23 15:56:00,59.2,2.3,29.98,SE,135,2.4,2.4,10,0.00,,,0.00,WUHU216TE923,2013-04-23 22:56:00,
2013-04-23 16:01:00,59.4,2.5,29.98,ENE,68,2.9,4.1,10,0.00,,,0.00,WUHU216TE923,2013-04-23 23:01:00,
2013-04-23 16:06:00,59.4,2.5,29.97,ENE,68,3.1,4.1,10,0.00,,,0.00,WUHU216TE923,2013-04-23 23:06:00,
2013-04-23 16:11:00,59.4,2.5,29.97,NNW,338,3.2,3.7,10,0.00,,,0.00,WUHU216TE923,2013-04-23 23:11:00,
2013-04-23 16:16:00,59.2,2.3,29.97,NNE,23,3.2,3.6,10,0.00,,,0.00,WUHU216TE923,2013-04-23 23:16:00,
2013-04-23 16:21:00,59.2,2.3,29.97,WNW,293,2.8,3.8,10,0.00,,,0.00,WUHU216TE923,2013-04-23 23:21:00,
2013-04-23 16:26:00,59.0,2.2,29.96,West,270,2.5,4.8,10,0.00,,,0.00,WUHU216TE923,2013-04-23 23:26:00,
2013-04-23 16:31:00,58.8,4.1,29.96,NNE,23,2.8,9.4,11,0.00,,,0.00,WUHU216TE923,2013-04-23 23:31:00,
2013-04-23 16:36:00,58.3,3.8,29.96,ENE,68,3.6,9.4,11,0.00,,,0.00,WUHU216TE923,2013-04-23 23:36:00,
2013-04-23 16:41:00,58.3,3.8,29.96,ENE,68,3.8,5.8,11,0.00,,,0.00,WUHU216TE923,2013-04-23 23:41:00,
2013-04-23 16:46:00,58.3,3.8,29.96,North,0,3.6,5.8,11,0.00,,,0.00,WUHU216TE923,2013-04-23 23:46:00,
2013-04-23 16:51:00,58.3,3.8,29.96,WSW,248,3.1,3.6,11,0.00,,,0.00,WUHU216TE923,2013-04-23 23:51:00,
2013-04-23 16:56:00,58.1,3.6,29.96,NNW,338,2.7,3.3,11,0.00,,,0.00,WUHU216TE923,2013-04-23 23:56:00,
2013-04-23 17:01:00,58.1,3.6,29.96,SSE,158,2.7,3.3,11,0.00,,,0.00,WUHU216TE923,2013-04-24 00:01:00,
2013-04-23 17:06:00,58.5,3.9,29.95,East,90,3.2,5.5,11,0.00,,,0.00,WUHU216TE923,2013-04-24 00:06:00,
2013-04-23 17:11:00,58.5,3.9,29.95,NW,315,3.6,6.0,11,0.00,,,0.00,WUHU216TE923,2013-04-24 00:11:00,
2013-04-23 17:16:00,58.3,3.8,29.95,NNE,23,3.6,6.0,11,0.00,,,0.00,WUHU216TE923,2013-04-24 00:16:00,
2013-04-23 17:21:00,58.5,7.7,29.95,NNE,23,3.4,7.0,13,0.00,,,0.00,WUHU216TE923,2013-04-24 00:21:00,
2013-04-23 17:26:00,58.1,3.6,29.95,East,90,3.6,8.9,11,0.00,,,0.00,WUHU216TE923,2013-04-24 00:26:00,
2013-04-23 17:31:00,58.1,3.6,29.95,East,90,3.5,8.9,11,0.00,,,0.00,WUHU216TE923,2013-04-24 00:31:00,
2013-04-23 17:36:00,58.1,3.6,29.95,East,90,3.3,4.7,11,0.00,,,0.00,WUHU216TE923,2013-04-24 00:36:00,
2013-04-23 17:41:00,57.7,7.0,29.95,SE,135,3.2,5.2,13,0.00,,,0.00,WUHU216TE923,2013-04-24 00:41:00,
2013-04-23 17:46:00,57.4,3.1,29.95,ENE,68,4.0,7.6,11,0.00,,,0.00,WUHU216TE923,2013-04-24 00:46:00,
2013-04-23 17:51:00,57.0,6.5,29.95,ENE,68,4.4,7.6,13,0.00,,,0.00,WUHU216TE923,2013-04-24 00:51:00,
2013-04-23 17:56:00,56.7,6.2,29.95,ENE,68,5.0,6.0,13,0.00,,,0.00,WUHU216TE923,2013-04-24 00:56:00,
2013-04-23 18:01:00,56.3,5.9,29.95,ENE,68,4.9,5.0,13,0.00,,,0.00,WUHU216TE923,2013-04-24 01:01:00,
2013-04-23 18:06:00,56.1,5.8,29.95,NE,45,4.9,6.1,13,0.00,,,0.00,WUHU216TE923,2013-04-24 01:06:00,
2013-04-23 18:11:00,55.9,5.6,29.95,ENE,68,4.8,6.5,13,0.00,,,0.00,WUHU216TE923,2013-04-24 01:11:00,
2013-04-23 18:16:00,55.8,8.7,29.95,ENE,68,3.9,6.5,15,0.00,,,0.00,WUHU216TE923,2013-04-24 01:16:00,
2013-04-23 18:21:00,55.6,5.4,29.95,NE,45,3.8,6.0,13,0.00,,,0.00,WUHU216TE923,2013-04-24 01:21:00,
2013-04-23 18:26:00,55.0,4.9,29.96,SE,135,4.7,6.0,13,0.00,,,0.00,WUHU216TE923,2013-04-24 01:26:00,
2013-04-23 18:31:00,54.7,4.7,29.96,ENE,68,4.7,5.3,13,0.00,,,0.00,WUHU216TE923,2013-04-24 01:31:00,
2013-04-23 18:36:00,54.3,4.3,29.96,ENE,68,4.4,5.3,13,0.00,,,0.00,WUHU216TE923,2013-04-24 01:36:00,
2013-04-23 18:41:00,54.1,4.2,29.96,NE,45,4.5,6.3,13,0.00,,,0.00,WUHU216TE923,2013-04-24 01:41:00,
2013-04-23 18:46:00,53.8,3.9,29.96,NNW,338,4.3,6.3,13,0.00,,,0.00,WUHU216TE923,2013-04-24 01:46:00,
2013-04-23 18:51:00,53.4,5.3,29.96,NNE,23,4.5,6.8,14,0.00,,,0.00,WUHU216TE923,2013-04-24 01:51:00,
2013-04-23 18:56:00,53.2,8.1,29.96,ENE,68,4.2,6.8,16,0.00,,,0.00,WUHU216TE923,2013-04-24 01:56:00,
2013-04-23 19:01:00,52.9,7.8,29.96,NE,45,4.3,5.7,16,0.00,,,0.00,WUHU216TE923,2013-04-24 02:01:00,
2013-04-23 19:06:00,52.7,7.7,29.97,NNE,23,4.7,5.7,16,0.00,,,0.00,WUHU216TE923,2013-04-24 02:06:00,
2013-04-23 19:12:00,52.5,7.5,29.97,NNE,23,5.2,7.0,16,0.00,,,0.00,WUHU216TE923,2013-04-24 02:12:00,
2013-04-23 19:17:00,52.2,11.1,29.97,East,90,5.0,7.0,19,0.00,,,0.00,WUHU216TE923,2013-04-24 02:17:00,
2013-04-23 19:22:00,51.6,11.7,29.98,ESE,113,4.5,7.5,20,0.00,,,0.00,WUHU216TE923,2013-04-24 02:22:00,
2013-04-23 19:27:00,51.6,11.7,29.98,ESE,113,4.5,7.5,20,0.00,,,0.00,WUHU216TE923,2013-04-24 02:27:00,
2013-04-23 19:32:00,50.9,11.2,29.98,NW,315,3.6,5.9,20,0.00,,,0.00,WUHU216TE923,2013-04-24 02:32:00,
2013-04-23 19:37:00,50.9,11.2,29.98,NW,315,3.6,5.9,20,0.00,,,0.00,WUHU216TE923,2013-04-24 02:37:00,
2013-04-23 19:42:00,50.2,10.6,29.98,NNW,338,3.9,6.3,20,0.00,,,0.00,WUHU216TE923,2013-04-24 02:42:00,
2013-04-23 19:47:00,50.2,10.6,29.98,NNW,338,3.9,6.3,20,0.00,,,0.00,WUHU216TE923,2013-04-24 02:47:00,
2013-04-23 19:52:00,49.8,10.2,29.98,NNE,23,3.4,7.8,20,0.00,,,0.00,WUHU216TE923,2013-04-24 02:52:00,
2013-04-23 19:57:00,49.8,10.2,29.98,NNE,23,3.4,7.8,20,0.00,,,0.00,WUHU216TE923,2013-04-24 02:57:00,
2013-04-23 20:02:00,49.3,9.8,30.00,ENE,68,2.6,5.4,20,0.00,,,0.00,WUHU216TE923,2013-04-24 03:02:00,
2013-04-23 20:07:00,49.3,9.8,30.00,ENE,68,2.6,5.4,20,0.00,,,0.00,WUHU216TE923,2013-04-24 03:07:00,
2013-04-23 20:12:00,48.9,9.5,30.00,NW,315,2.2,4.6,20,0.00,,,0.00,WUHU216TE923,2013-04-24 03:12:00,
2013-04-23 20:17:00,48.9,9.5,30.00,NW,315,2.2,4.6,20,0.00,,,0.00,WUHU216TE923,2013-04-24 03:17:00,
2013-04-23 20:22:00,48.6,10.3,30.00,NE,45,2.0,2.6,21,0.00,,,0.00,WUHU216TE923,2013-04-24 03:22:00,
2013-04-23 20:27:00,48.6,10.3,30.00,NE,45,2.0,2.6,21,0.00,,,0.00,WUHU216TE923,2013-04-24 03:27:00,
2013-04-23 20:32:00,48.2,10.0,30.00,NNW,338,2.3,5.2,21,0.00,,,0.00,WUHU216TE923,2013-04-24 03:32:00,
2013-04-23 20:37:00,48.2,10.0,30.00,NNW,338,2.3,5.2,21,0.00,,,0.00,WUHU216TE923,2013-04-24 03:37:00,
2013-04-23 20:42:00,47.8,9.6,30.01,NE,45,2.8,6.6,21,0.00,,,0.00,WUHU216TE923,2013-04-24 03:42:00,
2013-04-23 20:47:00,47.8,9.6,30.01,NE,45,2.8,6.6,21,0.00,,,0.00,WUHU216TE923,2013-04-24 03:47:00,
2013-04-23 20:53:00,47.7,9.6,30.01,ENE,68,2.4,5.7,21,0.00,,,0.00,WUHU216TE923,2013-04-24 03:53:00,
2013-04-23 20:58:00,47.5,9.4,30.01,NW,315,2.1,5.7,21,0.00,,,0.00,WUHU216TE923,2013-04-24 03:58:00,
2013-04-23 21:03:00,47.1,9.1,30.02,SSE,158,1.3,2.1,21,0.00,,,0.00,WUHU216TE923,2013-04-24 04:03:00,
2013-04-23 21:08:00,46.9,8.9,30.02,NNE,23,0.7,1.4,21,0.00,,,0.00,WUHU216TE923,2013-04-24 04:08:00,
2013-04-23 21:13:00,46.6,9.7,30.02,NW,315,0.7,1.3,22,0.00,,,0.00,WUHU216TE923,2013-04-24 04:13:00,
2013-04-23 21:18:00,46.2,9.3,30.02,NNE,23,0.8,1.3,22,0.00,,,0.00,WUHU216TE923,2013-04-24 04:18:00,
2013-04-23 21:23:00,46.0,10.1,30.02,NNW,338,0.8,1.2,23,0.00,,,0.00,WUHU216TE923,2013-04-24 04:23:00,
2013-04-23 21:28:00,45.9,10.0,30.02,NNW,338,0.6,1.2,23,0.00,,,0.00,WUHU216TE923,2013-04-24 04:28:00,
2013-04-23 21:33:00,45.9,10.0,30.02,NE,45,0.7,0.7,23,0.00,,,0.00,WUHU216TE923,2013-04-24 04:33:00,
2013-04-23 21:38:00,45.7,9.9,30.02,ESE,113,1.0,1.2,23,0.00,,,0.00,WUHU216TE923,2013-04-24 04:38:00,
2013-04-23 21:43:00,45.5,9.7,30.05,SE,135,1.5,1.7,23,0.00,,,0.00,WUHU216TE923,2013-04-24 04:43:00,
2013-04-23 21:48:00,45.3,9.5,30.05,ENE,68,2.1,5.9,23,0.00,,,0.00,WUHU216TE923,2013-04-24 04:48:00,
2013-04-23 21:53:00,45.1,9.4,30.05,ENE,68,2.7,5.9,23,0.00,,,0.00,WUHU216TE923,2013-04-24 04:53:00,
2013-04-23 21:58:00,45.0,9.3,30.05,ESE,113,2.6,3.3,23,0.00,,,0.00,WUHU216TE923,2013-04-24 04:58:00,
2013-04-23 22:03:00,44.8,9.1,30.05,ENE,68,2.1,2.9,23,0.00,,,0.00,WUHU216TE923,2013-04-24 05:03:00,
2013-04-23 22:08:00,44.6,8.9,30.05,ENE,68,1.9,2.9,23,0.00,,,0.00,WUHU216TE923,2013-04-24 05:08:00,
2013-04-23 22:13:00,44.4,8.8,30.05,ENE,68,1.4,1.9,23,0.00,,,0.00,WUHU216TE923,2013-04-24 05:13:00,
2013-04-23 22:18:00,44.2,8.6,30.05,NNE,23,1.4,2.7,23,0.00,,,0.00,WUHU216TE923,2013-04-24 05:18:00,
2013-04-23 22:23:00,44.1,9.4,30.05,NNW,338,1.2,2.7,24,0.00,,,0.00,WUHU216TE923,2013-04-24 05:23:00,
2013-04-23 22:28:00,43.9,9.3,30.05,ENE,68,1.0,1.2,24,0.00,,,0.00,WUHU216TE923,2013-04-24 05:28:00,
2013-04-23 22:33:00,43.9,9.3,30.05,NNE,23,0.5,1.0,24,0.00,,,0.00,WUHU216TE923,2013-04-24 05:33:00,
2013-04-23 22:38:00,43.7,9.1,30.05,NW,315,0.5,1.0,24,0.00,,,0.00,WUHU216TE923,2013-04-24 05:38:00,
2013-04-23 22:43:00,43.3,9.7,30.05,ENE,68,0.3,1.4,25,0.00,,,0.00,WUHU216TE923,2013-04-24 05:43:00,
2013-04-23 22:48:00,43.0,11.1,30.05,NNW,338,0.2,1.4,27,0.00,,,0.00,WUHU216TE923,2013-04-24 05:48:00,
2013-04-23 22:53:00,42.6,11.5,30.05,NNE,23,0.3,0.3,28,0.00,,,0.00,WUHU216TE923,2013-04-24 05:53:00,
2013-04-23 22:58:00,42.4,12.9,30.05,NW,315,0.3,0.3,30,0.00,,,0.00,WUHU216TE923,2013-04-24 05:58:00,
2013-04-23 23:03:00,41.9,12.5,30.05,NW,315,0.1,0.3,30,0.00,,,0.00,WUHU216TE923,2013-04-24 06:03:00,
2013-04-23 23:08:00,41.7,12.3,30.05,NE,45,0.1,0.1,30,0.00,,,0.00,WUHU216TE923,2013-04-24 06:08:00,
2013-04-23 23:13:00,41.4,12.0,30.05,NNE,23,0.1,1.3,30,0.00,,,0.00,WUHU216TE923,2013-04-24 06:13:00,
2013-04-23 23:18:00,41.5,12.1,30.05,NNW,338,0.2,1.3,30,0.00,,,0.00,WUHU216TE923,2013-04-24 06:18:00,
2013-04-23 23:23:00,41.5,12.1,30.04,NNW,338,0.6,1.2,30,0.00,,,0.00,WUHU216TE923,2013-04-24 06:23:00,
2013-04-23 23:28:00,41.4,12.0,30.04,West,270,0.4,1.2,30,0.00,,,0.00,WUHU216TE923,2013-04-24 06:28:00,
2013-04-23 23:33:00,41.4,12.0,30.04,NNE,23,0.7,1.3,30,0.00,,,0.00,WUHU216TE923,2013-04-24 06:33:00,
2013-04-23 23:38:00,41.4,12.0,30.04,NW,315,1.1,1.4,30,0.00,,,0.00,WUHU216TE923,2013-04-24 06:38:00,
2013-04-23 23:43:00,41.2,11.9,30.05,WSW,248,0.9,1.4,30,0.00,,,0.00,WUHU216TE923,2013-04-24 06:43:00,
2013-04-23 23:48:00,41.2,11.9,30.05,NW,315,0.9,1.2,30,0.00,,,0.00,WUHU216TE923,2013-04-24 06:48:00,
2013-04-23 23:53:00,41.0,12.4,30.05,NW,315,1.2,1.4,31,0.00,,,0.00,WUHU216TE923,2013-04-24 06:53:00,
2013-04-23 23:58:00,41.0,12.4,30.05,West,270,1.3,2.3,31,0.00,,,0.00,WUHU216TE923,2013-04-24 06:58:00,